Wind_Speed
19 19 20 20 22 24 26 27 28 31 33 34 36 38 40 42 44 44 44 44 43 43 44 45 44 43 43 44 43 42 43 41 42 41 41 42 40 40 40 40 40 40 39 38
16 15 16 16 18 20 22 24 26 27 28 30 33 36 39 40 41 43 43 43 42 43 44 44 44 45 44 44 43 43 43 42 42 43 42 42 42 41 41 41 42 42 42 40
14 12 13 14 15 16 17 21 23 26 27 29 30 32 35 38 39 40 42 42 42 42 43 43 42 43 44 44 44 43 43 44 44 44 44 43 41 41 42 41 42 42 42 43
13 11 10 12 14 17 17 17 20 23 25 26 29 31 31 33 36 38 40 41 42 43 43 43 44 43 44 44 45 45 46 46 46 45 44 44 43 42 42 41 40 41 42 43
12 10 10 11 14 16 17 16 18 21 22 24 25 28 29 31 33 35 37 39 41 42 42 42 43 44 44 45 45 46 46 46 46 47 46 45 44 44 43 43 42 42 42 43
11 10 11 10 11 13 15 16 17 17 20 22 23 25 26 28 30 32 34 36 38 41 42 42 42 42 43 45 47 47 47 47 47 47 46 46 45 46 45 44 45 44 43 43
9 9 10 10 10 11 12 14 14 16 19 20 20 23 24 23 26 30 32 34 37 39 41 41 42 42 43 44 45 47 48 48 48 48 47 47 45 45 45 44 44 45 44 43
10 8 9 9 10 10 11 13 14 16 18 18 19 21 22 22 23 27 29 32 34 36 38 40 41 42 43 44 44 45 46 48 48 49 48 47 47 45 45 44 43 44 44 43
10 9 8 9 9 10 11 11 14 16 17 18 18 19 21 22 22 24 28 31 33 34 36 37 39 41 43 44 44 44 45 46 48 48 48 47 48 47 46 45 45 44 44 43
10 10 10 10 10 10 11 12 13 15 18 19 19 19 20 21 22 22 25 29 32 34 35 36 38 39 41 42 44 45 44 44 46 47 48 47 47 47 47 46 45 44 43 42
10 11 11 11 11 12 13 13 14 16 18 19 21 19 21 22 23 25 27 29 30 32 33 35 37 38 38 40 42 43 43 44 45 46 47 46 47 47 48 47 46 45 44 44
12 13 13 12 13 13 14 15 15 16 17 20 21 19 21 22 24 25 26 29 30 31 32 33 36 38 38 39 40 41 42 43 44 45 45 46 45 46 46 45 46 46 45 45
13 14 13 13 14 14 15 16 17 18 19 20 22 20 22 23 24 26 27 28 29 30 31 31 34 36 38 39 39 40 41 42 43 44 45 46 47 47 46 44 44 46 46 44
14 14 14 15 15 16 17 17 18 19 20 21 21 21 21 24 24 25 26 28 29 30 31 31 32 34 36 38 39 40 41 42 42 43 44 44 45 45 45 45 45 45 45 45
16 17 17 16 17 17 17 18 19 21 21 22 21 21 22 24 25 25 26 27 28 29 31 32 32 33 34 36 39 41 41 42 42 43 43 43 43 43 44 44 46 46 45 45
17 18 18 18 18 18 18 19 21 22 22 23 23 22 23 24 24 25 26 26 28 29 30 32 32 32 33 35 38 40 41 42 42 42 41 42 43 42 42 43 45 45 44 43
18 18 18 18 19 19 19 20 21 22 24 24 24 22 23 23 23 23 24 26 27 28 29 30 32 33 33 33 36 37 39 40 41 41 40 41 42 41 41 42 43 43 42 42
18 18 17 18 20 20 20 21 22 23 22 23 23 23 24 24 24 24 25 25 26 26 27 29 30 32 33 33 34 35 36 37 38 39 40 40 41 40 40 39 40 41 41 40
19 19 18 19 19 20 20 21 22 22 21 20 21 22 24 24 25 24 25 26 27 27 27 28 29 30 31 32 33 34 35 35 36 37 38 40 40 40 39 39 40 40 40 39
19 19 19 20 20 21 21 22 22 22 21 20 21 22 23 24 25 25 26 27 27 27 28 29 29 29 29 30 31 32 33 34 35 36 37 38 39 39 39 39 39 39 39 39
19 20 20 20 21 21 22 23 23 22 22 22 22 22 23 24 24 24 26 27 27 27 28 29 29 29 29 29 29 29 30 32 33 34 35 35 36 37 38 38 37 38 38 38
21 21 21 22 22 22 22 23 23 22 22 23 23 24 24 24 23 23 24 25 26 27 27 28 28 27 28 28 28 29 29 30 31 33 34 34 34 35 36 37 37 38 38 39
21 22 22 23 23 23 24 24 24 24 24 24 24 24 24 23 23 24 24 24 24 25 26 26 26 26 27 28 28 29 29 30 31 31 32 34 34 34 35 36 37 38 38 38
23 23 24 24 23 24 25 25 26 26 26 25 25 25 25 25 24 24 24 24 25 24 24 24 24 25 26 27 28 28 28 29 31 31 31 32 34 35 35 36 37 37 37 37
25 25 25 25 24 25 26 26 27 27 27 27 27 27 27 26 25 25 24 25 25 25 25 25 25 25 26 26 27 27 27 28 29 30 31 31 32 32 34 34 34 34 35 35
25 25 25 25 26 27 27 28 28 28 28 28 28 28 28 27 26 25 25 25 25 25 25 25 25 26 26 26 26 26 26 26 27 28 29 30 31 31 31 31 32 32 33 33
Wind_Direction
288 279 268 257 250 245 241 242 242 238 235 237 238 237 234 234 235 236 236 237 237 236 236 236 235 235 235 236 236 236 236 236 239 241 242 244 246 247 248 248 248 249 250 251
291 280 271 257 250 245 241 243 243 238 236 239 237 237 236 235 237 237 236 236 237 236 234 235 235 234 233 233 234 236 236 238 239 241 244 247 249 248 248 249 248 249 251 252
301 293 276 261 254 246 246 244 242 237 236 238 238 239 236 235 236 236 236 236 236 235 236 235 234 233 232 233 234 236 238 239 241 241 243 246 250 250 248 250 250 250 251 253
310 301 283 265 256 252 253 246 244 241 239 239 239 241 239 238 237 237 236 236 237 237 238 238 236 236 235 235 237 239 240 241 242 243 243 246 247 248 248 250 251 250 251 253
316 306 293 277 261 258 254 248 247 244 242 244 243 246 243 241 237 236 236 236 237 236 237 238 238 238 238 236 237 239 240 242 244 245 246 246 246 247 249 250 250 251 252 253
321 310 297 285 268 260 253 253 254 252 249 248 247 250 248 243 240 238 236 236 237 237 237 237 238 239 239 239 239 240 242 244 245 246 246 247 246 247 249 249 250 250 252 253
326 316 304 291 276 262 254 253 257 260 258 255 254 255 251 248 243 240 239 239 238 238 238 238 239 239 239 239 240 241 243 245 245 246 248 247 247 248 248 248 250 251 252 253
325 321 309 299 285 276 266 258 258 265 263 258 258 259 253 250 247 243 241 241 240 240 239 240 241 241 240 240 241 243 244 246 247 248 248 247 247 248 248 248 250 251 252 254
321 321 313 305 294 283 277 268 263 267 266 264 261 262 254 252 252 247 243 242 242 242 242 242 241 241 242 242 243 244 246 248 248 248 247 248 249 249 249 250 251 253 253 254
314 314 310 305 302 289 281 283 277 271 270 268 266 261 256 254 256 252 247 245 245 244 244 242 241 241 242 243 245 246 247 249 249 249 249 249 250 250 250 251 252 254 255 256
316 315 312 306 302 297 286 283 285 280 273 273 273 265 263 262 259 256 252 248 246 245 245 246 244 242 242 244 245 246 247 248 249 249 250 251 251 251 251 252 252 253 254 256
311 309 304 301 301 299 292 284 288 286 280 275 275 274 268 267 262 259 256 252 251 249 248 248 247 244 244 245 246 246 248 248 249 249 250 251 251 251 251 252 252 252 254 256
308 306 301 296 298 294 291 288 290 288 286 282 278 280 275 275 268 264 260 255 254 252 250 249 248 248 247 246 247 248 249 249 249 249 250 252 253 252 252 252 252 252 253 254
302 303 302 300 297 293 289 288 289 287 284 285 284 284 278 276 274 270 264 259 257 254 252 252 253 251 249 248 249 250 250 250 250 250 251 253 254 253 252 252 252 252 253 254
300 298 297 297 297 294 289 288 288 286 286 286 287 285 279 277 277 273 268 262 259 258 257 257 256 254 252 251 251 252 252 251 250 250 250 252 253 253 251 251 251 253 253 253
303 299 299 298 298 296 291 291 290 286 285 285 287 287 283 282 280 275 270 265 264 262 260 259 258 257 255 254 254 254 253 252 252 250 250 250 251 251 251 250 250 251 252 252
307 299 297 296 298 298 295 294 293 290 287 286 286 285 282 282 280 277 272 268 267 266 263 262 261 259 257 256 255 255 254 252 251 248 247 248 248 249 249 249 250 250 250 251
311 307 301 299 296 297 300 297 294 293 293 289 285 282 281 281 280 277 272 270 269 269 265 263 262 261 260 258 256 254 253 252 251 247 245 246 247 248 248 247 247 248 250 251
309 306 302 300 300 300 303 303 300 297 297 293 288 285 283 282 281 277 274 272 271 270 267 264 264 264 263 260 258 255 254 252 251 249 246 245 246 246 247 248 248 248 249 251
305 304 301 300 301 303 304 303 302 300 298 296 292 290 288 285 282 279 277 275 273 271 269 266 266 266 263 261 260 258 255 252 250 249 247 246 247 247 248 249 248 248 250 251
304 304 302 298 300 301 303 303 301 300 300 296 293 293 292 290 286 282 278 276 274 273 270 269 267 266 264 262 261 259 256 253 249 247 246 247 249 248 248 248 248 249 250 251
303 302 301 300 299 300 302 302 301 301 299 297 295 294 293 292 290 286 281 278 276 274 271 270 268 266 265 264 264 262 258 255 251 248 248 248 248 248 247 248 249 250 251 252
302 302 300 300 298 297 299 299 301 300 299 298 297 295 293 291 290 289 284 281 279 276 273 272 270 267 267 266 265 263 260 255 252 251 249 249 249 249 250 250 250 251 252 252
303 301 300 298 298 298 298 299 299 298 297 297 296 294 291 288 289 287 285 283 281 278 275 273 271 268 267 267 266 264 260 256 253 251 251 251 250 250 250 250 250 250 250 251
303 302 300 298 298 297 295 297 299 298 296 296 296 293 291 290 287 284 283 283 282 279 278 275 272 270 268 267 264 263 260 258 255 253 252 252 252 250 251 251 251 249 249 249
301 301 300 300 298 297 297 297 298 298 298 299 296 292 291 290 287 284 284 283 283 282 280 277 274 272 270 267 263 261 260 258 257 256 254 253 251 250 251 251 249 248 248 247
Height
5656 5655 5654 5654 5654 5656 5657 5659 5662 5665 5669 5673 5677 5683 5688 5693 5698 5704 5709 5714 5719 5724 5728 5731 5736 5739 5743 5746 5750 5753 5757 5760 5763 5766 5769 5772 5774 5776 5778 5779 5781 5783 5784 5786
5652 5651 5650 5650 5650 5651 5652 5654 5656 5659 5663 5665 5669 5673 5679 5683 5688 5694 5699 5704 5709 5714 5718 5722 5726 5730 5733 5737 5741 5745 5749 5752 5755 5758 5760 5762 5765 5767 5769 5770 5772 5774 5776 5778
5648 5648 5646 5646 5647 5647 5648 5650 5652 5654 5657 5659 5662 5665 5670 5674 5678 5683 5689 5694 5700 5705 5709 5714 5717 5721 5725 5729 5733 5737 5740 5743 5746 5748 5751 5753 5755 5757 5759 5761 5762 5765 5767 5769
5645 5644 5643 5643 5644 5644 5645 5647 5647 5649 5651 5653 5656 5657 5662 5666 5669 5674 5679 5684 5690 5695 5700 5704 5708 5713 5717 5721 5724 5728 5731 5734 5736 5739 5741 5743 5746 5748 5750 5752 5754 5755 5757 5759
5643 5642 5641 5641 5642 5642 5642 5643 5644 5645 5646 5648 5650 5651 5655 5658 5661 5666 5671 5675 5681 5686 5690 5695 5699 5704 5707 5711 5714 5718 5721 5724 5726 5728 5731 5733 5736 5739 5741 5743 5744 5746 5748 5750
5642 5641 5639 5639 5639 5639 5639 5640 5640 5641 5641 5643 5645 5646 5649 5652 5656 5659 5663 5667 5671 5676 5681 5685 5689 5693 5697 5701 5705 5708 5711 5713 5715 5718 5721 5723 5726 5728 5731 5733 5735 5736 5738 5741
5641 5640 5638 5637 5637 5637 5637 5637 5638 5637 5637 5639 5640 5641 5644 5647 5649 5653 5656 5659 5663 5667 5671 5675 5679 5683 5687 5690 5694 5698 5701 5703 5706 5709 5711 5713 5716 5718 5721 5723 5725 5727 5729 5731
5640 5639 5637 5635 5634 5634 5634 5635 5635 5635 5634 5635 5636 5637 5640 5642 5643 5645 5649 5652 5655 5658 5662 5666 5669 5673 5676 5680 5683 5687 5690 5693 5695 5698 5701 5703 5705 5708 5711 5713 5715 5717 5719 5721
5638 5638 5636 5634 5633 5632 5632 5632 5633 5632 5630 5631 5631 5633 5635 5636 5637 5639 5641 5644 5646 5649 5653 5656 5660 5663 5666 5669 5673 5676 5679 5682 5685 5687 5690 5692 5695 5697 5700 5702 5705 5707 5709 5712
5637 5636 5635 5633 5632 5631 5630 5629 5629 5628 5626 5625 5627 5628 5629 5630 5631 5633 5634 5636 5638 5641 5644 5647 5650 5653 5656 5659 5663 5666 5669 5672 5674 5677 5679 5682 5684 5687 5689 5691 5694 5697 5699 5701
5635 5634 5633 5631 5630 5628 5628 5627 5625 5624 5623 5622 5622 5626 5624 5624 5625 5626 5628 5629 5630 5633 5635 5638 5640 5643 5647 5650 5652 5655 5658 5661 5663 5666 5668 5671 5674 5676 5679 5681 5684 5687 5689 5691
5633 5632 5630 5629 5627 5625 5624 5623 5622 5621 5620 5618 5617 5622 5619 5619 5619 5619 5620 5621 5623 5624 5627 5629 5631 5634 5637 5639 5642 5645 5648 5650 5652 5655 5657 5660 5663 5665 5668 5671 5673 5676 5679 5681
5631 5629 5628 5626 5626 5624 5621 5620 5618 5617 5616 5614 5613 5617 5614 5613 5613 5613 5613 5614 5615 5616 5617 5619 5622 5624 5627 5629 5632 5635 5637 5639 5641 5644 5646 5649 5651 5654 5657 5660 5663 5666 5669 5671
5627 5626 5625 5624 5621 5618 5617 5616 5614 5613 5611 5610 5609 5609 5609 5607 5606 5606 5606 5606 5607 5608 5610 5611 5613 5615 5617 5619 5622 5624 5626 5628 5630 5633 5635 5638 5640 5643 5646 5649 5652 5655 5658 5660
5624 5622 5621 5619 5617 5614 5613 5612 5610 5608 5606 5605 5604 5603 5602 5601 5600 5599 5599 5599 5600 5600 5602 5603 5604 5606 5608 5610 5612 5613 5615 5617 5619 5622 5624 5627 5629 5632 5635 5638 5641 5644 5646 5649
5620 5618 5616 5615 5612 5610 5609 5607 5605 5603 5601 5599 5597 5597 5596 5594 5593 5592 5592 5592 5592 5593 5594 5594 5595 5596 5598 5599 5601 5603 5604 5606 5608 5610 5613 5616 5618 5621 5624 5626 5629 5632 5635 5637
5616 5614 5612 5610 5607 5605 5604 5603 5600 5597 5595 5593 5591 5592 5589 5588 5586 5585 5585 5584 5584 5585 5585 5586 5587 5587 5588 5589 5590 5592 5593 5595 5597 5599 5602 5605 5608 5611 5613 5615 5618 5621 5624 5626
5612 5609 5607 5605 5603 5600 5601 5597 5594 5591 5589 5587 5585 5584 5582 5581 5580 5579 5578 5577 5577 5577 5577 5577 5578 5578 5579 5579 5580 5581 5582 5584 5586 5588 5592 5595 5597 5600 5602 5605 5608 5610 5613 5615
5607 5604 5602 5599 5596 5595 5594 5591 5587 5585 5584 5581 5579 5577 5575 5574 5573 5573 5571 5570 5569 5569 5568 5568 5569 5569 5569 5569 5570 5571 5572 5574 5576 5578 5581 5584 5587 5589 5592 5594 5597 5599 5601 5604
5602 5599 5597 5594 5591 5589 5589 5585 5581 5579 5577 5575 5572 5570 5568 5567 5566 5566 5564 5563 5562 5561 5561 5560 5560 5560 5560 5560 5560 5561 5563 5564 5566 5568 5571 5573 5576 5579 5581 5584 5586 5588 5591 5593
5597 5594 5591 5588 5585 5584 5583 5578 5575 5574 5572 5568 5566 5563 5561 5559 5558 5558 5556 5555 5554 5553 5553 5552 5552 5551 5551 5551 5551 5552 5553 5554 5556 5559 5561 5563 5566 5568 5571 5573 5576 5578 5580 5583
5591 5588 5585 5582 5579 5580 5575 5572 5570 5567 5564 5561 5559 5556 5554 5552 5550 5549 5548 5547 5546 5545 5544 5543 5543 5543 5542 5542 5543 5543 5544 5545 5547 5549 5551 5554 5556 5558 5560 5563 5565 5567 5570 5572
5585 5583 5579 5577 5576 5572 5569 5566 5563 5560 5557 5554 5552 5549 5547 5545 5543 5542 5541 5539 5538 5537 5536 5535 5534 5534 5534 5534 5534 5535 5535 5536 5538 5540 5542 5544 5546 5548 5551 5553 5555 5557 5559 5561
5579 5576 5573 5570 5569 5565 5562 5558 5556 5553 5550 5547 5545 5542 5540 5538 5536 5534 5533 5531 5530 5529 5528 5527 5526 5526 5526 5526 5526 5526 5526 5527 5529 5531 5533 5534 5536 5538 5540 5542 5544 5547 5549 5551
5572 5569 5565 5563 5561 5558 5555 5551 5548 5546 5543 5540 5537 5534 5532 5529 5528 5526 5524 5523 5522 5521 5520 5519 5518 5518 5517 5517 5517 5517 5518 5519 5520 5522 5524 5525 5527 5528 5530 5532 5534 5536 5538 5541
5565 5562 5558 5556 5554 5550 5548 5544 5541 5538 5535 5532 5529 5526 5523 5521 5519 5517 5516 5515 5513 5512 5511 5510 5510 5509 5509 5508 5509 5509 5510 5511 5512 5513 5514 5516 5517 5519 5520 5522 5524 5526 5529 5531